Dades meteomassalio
Diari Summary for Maig 29, 2017 Units:  Metric    English   Both
« Previous Day
Next Day »
Diari Semanal Mensual Anual Personalitzat
  Maxima: Minima: Mijana:
Temperatura: -17.8 °C -9.4 °C -5.5 °C
Rosada: -17.8 °C -16.8 °C -12.3 °C
Humitat: Humidity % 20 % 51 %
Velocitat del vent: 0 km/h 0 km/h 15.8 km/h
Racha vent: 0 km/h - -
Vent:- - SSE
Pressio: 0 hPa 34269.7 hPa -
Pluja: 0 mm    
Historical Graphs
 
 
Tabular Data for Maig 29, 2017
Time Temperature Dew Point Pressure Wind Wind Speed Wind Gust Humidity Rainfall Rate (Hourly) solar Conditions
-17.8 °C -17.8 °C 0 hPa Calm     Humidity % 0 mm SolarRadiationWatts/m^2 W/m2 Conditions
00:02 -6.7 °C -10.2 °C 34418.7 hPa Calm     67 % 0 mm 0.0 W/m2 CLR
00:07 -6.7 °C -10.2 °C 34405.1 hPa Calm     67 % 0 mm 0.0 W/m2 CLR
00:12 -6.7 °C -10.1 °C 34405.1 hPa Calm     68 % 0 mm 0.0 W/m2 CLR
00:17 -6.8 °C -10.1 °C 34405.1 hPa Calm     69 % 0 mm 0.0 W/m2 CLR
00:22 -6.8 °C -9.9 °C 34405.1 hPa Calm     70 % 0 mm 0.0 W/m2 CLR
00:27 -6.8 °C -9.9 °C 34405.1 hPa Calm     70 % 0 mm 0.0 W/m2 CLR
00:32 -6.9 °C -9.9 °C 34405.1 hPa ESE 9 km/h 9 km/h 71 % 0 mm 0.0 W/m2 CLR
00:37 -6.9 °C -10.1 °C 34405.1 hPa Calm     70 % 0 mm 0.0 W/m2 CLR
00:42 -6.9 °C -9.9 °C 34405.1 hPa Calm     71 % 0 mm 0.0 W/m2 CLR
00:47 -7 °C -10 °C 34405.1 hPa Calm     71 % 0 mm 0.0 W/m2 CLR
00:52 -7.1 °C -10.1 °C 34405.1 hPa Calm     71 % 0 mm 0.0 W/m2 CLR
00:57 -7.1 °C -10.1 °C 34418.7 hPa Calm     71 % 0 mm 0.0 W/m2 CLR
01:02 -7.1 °C -10.1 °C 34418.7 hPa Calm     71 % 0 mm 0.0 W/m2 CLR
01:07 -7.1 °C -9.9 °C 34418.7 hPa Calm     72 % 0 mm 0.0 W/m2 CLR
01:12 -7.1 °C -9.9 °C 34405.1 hPa Calm     72 % 0 mm 0.0 W/m2 CLR
01:17 -7.1 °C -9.9 °C 34405.1 hPa Calm     72 % 0 mm 0.0 W/m2 CLR
01:22 -7.1 °C -9.9 °C 34405.1 hPa Calm     72 % 0 mm 0.0 W/m2 CLR
01:32 -7.1 °C -9.9 °C 34405.1 hPa Calm     72 % 0 mm 0.0 W/m2 CLR
01:37 -7.1 °C -9.9 °C 34405.1 hPa Calm     72 % 0 mm 0.0 W/m2 CLR
01:42 -7.2 °C -10.1 °C 34405.1 hPa Calm     72 % 0 mm 0.0 W/m2 CLR
01:47 -7.3 °C -10.2 °C 34405.1 hPa Calm     72 % 0 mm 0.0 W/m2 CLR
01:52 -7.3 °C -10.1 °C 34405.1 hPa Calm     73 % 0 mm 0.0 W/m2 CLR
01:57 -7.4 °C -10.2 °C 34395 hPa Calm     72 % 0 mm 0.0 W/m2 CLR
02:02 -7.4 °C -10.2 °C 34395 hPa Calm     73 % 0 mm 0.0 W/m2 CLR
02:07 -7.4 °C -10.2 °C 34405.1 hPa Calm     73 % 0 mm 0.0 W/m2 CLR
02:12 -7.4 °C -10.2 °C 34395 hPa Calm     73 % 0 mm 0.0 W/m2 CLR
02:17 -7.3 °C -10.1 °C 34395 hPa Calm     73 % 0 mm 0.0 W/m2 CLR
02:22 -7.3 °C -10.2 °C 34405.1 hPa SE 9 km/h 9 km/h 72 % 0 mm 0.0 W/m2 CLR
02:27 -7.3 °C -10.2 °C 34395 hPa Calm     72 % 0 mm 0.0 W/m2 CLR
02:32 -7.3 °C -10.2 °C 34395 hPa ESE 11.9 km/h 11.9 km/h 72 % 0 mm 0.0 W/m2 CLR
02:37 -7.4 °C -10.3 °C 34395 hPa Calm     72 % 0 mm 0.0 W/m2 CLR
02:42 -7.6 °C -10.3 °C 34395 hPa Calm     73 % 0 mm 0.0 W/m2 CLR
02:47 -7.6 °C -10.4 °C 34395 hPa Calm     73 % 0 mm 0.0 W/m2 CLR
02:52 -7.7 °C -10.4 °C 34395 hPa Calm     73 % 0 mm 0.0 W/m2 CLR
02:57 -7.8 °C -10.4 °C 34395 hPa Calm     74 % 0 mm 0.0 W/m2 CLR
03:02 -7.9 °C -10.5 °C 34395 hPa Calm     74 % 0 mm 0.0 W/m2 CLR
03:07 -7.9 °C -10.4 °C 34395 hPa Calm     75 % 0 mm 0.0 W/m2 CLR
03:12 -7.9 °C -10.4 °C 34395 hPa Calm     75 % 0 mm 0.0 W/m2 CLR
03:17 -7.8 °C -10.3 °C 34395 hPa Calm     75 % 0 mm 0.0 W/m2 CLR
03:22 -7.9 °C -10.7 °C 34395 hPa Calm     73 % 0 mm 0.0 W/m2 CLR
03:27 -8 °C -10.5 °C 34395 hPa Calm     75 % 0 mm 0.0 W/m2 CLR
03:32 -8.1 °C -10.7 °C 34395 hPa Calm     74 % 0 mm 0.0 W/m2 CLR
03:37 -8.3 °C -10.9 °C 34395 hPa Calm     74 % 0 mm 0.0 W/m2 CLR
03:42 -8.4 °C -10.9 °C 34395 hPa Calm     74 % 0 mm 0.0 W/m2 CLR
03:47 -8.6 °C -11 °C 34395 hPa Calm     75 % 0 mm 0.0 W/m2 CLR
03:52 -8.7 °C -11 °C 34395 hPa Calm     76 % 0 mm 0.0 W/m2 CLR
03:57 -8.8 °C -11.1 °C 34395 hPa Calm     76 % 0 mm 0.0 W/m2 CLR
04:02 -8.8 °C -11.1 °C 34384.8 hPa Calm     77 % 0 mm 0.0 W/m2 CLR
04:07 -8.9 °C -11 °C 34384.8 hPa Calm     78 % 0 mm 0.0 W/m2 CLR
04:12 -8.9 °C -11.1 °C 34384.8 hPa Calm     78 % 0 mm 0.0 W/m2 CLR
04:17 -9 °C -11.1 °C 34384.8 hPa Calm     78 % 0 mm 0.0 W/m2 CLR
04:22 -9 °C -11 °C 34384.8 hPa Calm     79 % 0 mm 0.0 W/m2 CLR
04:27 -9.1 °C -11.1 °C 34384.8 hPa Calm     79 % 0 mm 0.0 W/m2 CLR
04:32 -9.2 °C -11.3 °C 34384.8 hPa Calm     78 % 0 mm 0.0 W/m2 CLR
04:37 -9.2 °C -11.2 °C 34384.8 hPa Calm     79 % 0 mm 0.0 W/m2 CLR
04:42 -9.3 °C -11.3 °C 34371.3 hPa Calm     79 % 0 mm 0.0 W/m2 CLR
04:47 -9.3 °C -11.2 °C 34384.8 hPa Calm     80 % 0 mm 0.0 W/m2 CLR
04:52 -9.3 °C -11.1 °C 34384.8 hPa Calm     81 % 0 mm 0.0 W/m2 CLR
04:58 -9.3 °C -11.2 °C 34384.8 hPa Calm     80 % 0 mm 0.0 W/m2 CLR
05:03 -9.3 °C -11.3 °C 34371.3 hPa Calm     79 % 0 mm 0.0 W/m2 CLR
05:08 -9.3 °C -11.3 °C 34371.3 hPa Calm     79 % 0 mm 0.0 W/m2 CLR
05:13 -9.4 °C -11.3 °C 34371.3 hPa Calm     80 % 0 mm 0.0 W/m2 CLR
05:18 -9.4 °C -11.3 °C 34371.3 hPa Calm     80 % 0 mm 0.0 W/m2 CLR
05:23 -9.4 °C -11.1 °C 34371.3 hPa NW 9 km/h 9 km/h 82 % 0 mm 0.0 W/m2 CLR
05:28 -9.4 °C -11.2 °C 34371.3 hPa Calm     81 % 0 mm 0.0 W/m2 CLR
05:33 -9.4 °C -11.3 °C 34371.3 hPa Calm     80 % 0 mm 0.0 W/m2 CLR
05:38 -9.4 °C -11.3 °C 34371.3 hPa Calm     80 % 0 mm 0.0 W/m2 CLR
05:48 -9.4 °C -11.3 °C 34371.3 hPa Calm     80 % 0 mm 0.0 W/m2 CLR
05:53 -9.4 °C -11.2 °C 34371.3 hPa Calm     81 % 0 mm 0.0 W/m2 CLR
05:58 -9.3 °C -11.3 °C 34371.3 hPa Calm     80 % 0 mm 0.0 W/m2 CLR
06:03 -9.3 °C -11.2 °C 34371.3 hPa Calm     80 % 0 mm 0.0 W/m2 CLR
06:08 -9.3 °C -11.3 °C 34371.3 hPa Calm     79 % 0 mm 0.0 W/m2 CLR
06:13 -9.3 °C -11.3 °C 34371.3 hPa Calm     79 % 0 mm 0.0 W/m2 CLR
06:18 -9.3 °C -11.3 °C 34361.1 hPa Calm     79 % 0 mm 0.0 W/m2 CLR
06:23 -9.3 °C -11.4 °C 34361.1 hPa East 9 km/h 9 km/h 78 % 0 mm 0.0 W/m2 OVC
06:28 -9.3 °C -11.4 °C 34361.1 hPa Calm     78 % 0 mm 0.0 W/m2 OVC
06:33 -9.3 °C -11.4 °C 34361.1 hPa Calm     78 % 0 mm 0.0 W/m2 OVC
06:38 -9.3 °C -11.5 °C 34361.1 hPa NW 17.9 km/h 17.9 km/h 77 % 0 mm 5.0 W/m2 OVC
06:43 -9.3 °C -11.3 °C 34361.1 hPa NNW 9 km/h 9 km/h 79 % 0 mm 9.0 W/m2 BKN
06:48 -9.3 °C -11.3 °C 34361.1 hPa Calm     79 % 0 mm 12.0 W/m2 BKN
06:53 -9.1 °C -11.3 °C 34361.1 hPa Calm     78 % 0 mm 16.0 W/m2 BKN
06:58 -9.1 °C -11.2 °C 34347.6 hPa Calm     78 % 0 mm 21.0 W/m2 BKN
06:59 -9 °C -11.2 °C 34347.6 hPa Calm     77 % 0 mm 23.0 W/m2 BKN
07:04 -8.9 °C -11.2 °C 34347.6 hPa Calm     77 % 0 mm 30.0 W/m2 BKN
07:09 -8.8 °C -11.2 °C 34347.6 hPa Calm     76 % 0 mm 37.0 W/m2 BKN
07:14 -8.8 °C -11.1 °C 34347.6 hPa Calm     76 % 0 mm 46.0 W/m2 SCT
07:19 -8.7 °C -11.2 °C 34347.6 hPa Calm     75 % 0 mm 54.0 W/m2 SCT
07:24 -8.7 °C -11.1 °C 34347.6 hPa Calm     75 % 0 mm 62.0 W/m2 SCT
07:29 -8.6 °C -11.2 °C 34347.6 hPa Calm     74 % 0 mm 67.0 W/m2 FEW
07:34 -8.5 °C -11.1 °C 34347.6 hPa Calm     74 % 0 mm 74.0 W/m2 FEW
07:39 -8.4 °C -11.1 °C 34347.6 hPa Calm     74 % 0 mm 86.0 W/m2 FEW
07:44 -8.4 °C -11 °C 34347.6 hPa Calm     74 % 0 mm 104.0 W/m2 FEW
07:49 -8.3 °C -10.9 °C 34347.6 hPa Calm     74 % 0 mm 105.0 W/m2 CLR
07:54 -8.2 °C -10.8 °C 34347.6 hPa Calm     74 % 0 mm 105.0 W/m2 CLR
07:59 -8.1 °C -10.8 °C 34347.6 hPa Calm     73 % 0 mm 116.0 W/m2 CLR
08:04 -8 °C -10.8 °C 34347.6 hPa Calm     72 % 0 mm 132.0 W/m2 CLR
08:09 -7.9 °C -10.8 °C 34347.6 hPa Calm     71 % 0 mm 155.0 W/m2 CLR
08:14 -7.7 °C -10.8 °C 34347.6 hPa Calm     70 % 0 mm 178.0 W/m2 CLR
08:19 -7.6 °C -10.7 °C 34361.1 hPa Calm     69 % 0 mm 229.0 W/m2 CLR
08:24 -7.4 °C -10.7 °C 34361.1 hPa Calm     68 % 0 mm 213.0 W/m2 CLR
08:30 -7.2 °C -10.7 °C 34347.6 hPa Calm     67 % 0 mm 174.0 W/m2 CLR
08:35 -7.1 °C -10.5 °C 34347.6 hPa Calm     67 % 0 mm 155.0 W/m2 CLR
08:40 -7 °C -10.4 °C 34347.6 hPa Calm     67 % 0 mm 130.0 W/m2 CLR
08:45 -6.9 °C -10.4 °C 34347.6 hPa Calm     67 % 0 mm 144.0 W/m2 CLR
08:50 -6.9 °C -10.4 °C 34347.6 hPa ENE 9 km/h 9 km/h 67 % 0 mm 149.0 W/m2 CLR
08:55 -6.9 °C -10.2 °C 34347.6 hPa Calm     69 % 0 mm 142.0 W/m2 CLR
09:00 -6.9 °C -9.9 °C 34347.6 hPa East 12.9 km/h 12.9 km/h 71 % 0 mm 190.0 W/m2 CLR
09:05 -6.8 °C -9.8 °C 34347.6 hPa ESE 15.6 km/h 15.6 km/h 71 % 0 mm 250.0 W/m2 CLR
09:10 -6.7 °C -9.8 °C 34347.6 hPa ESE 17.9 km/h 17.9 km/h 70 % 0 mm 283.0 W/m2 CLR
09:15 -6.6 °C -9.9 °C 34337.4 hPa East 17.9 km/h 17.9 km/h 69 % 0 mm 234.0 W/m2 CLR
09:20 -6.5 °C -9.8 °C 34347.6 hPa Calm     69 % 0 mm 239.0 W/m2 CLR
09:25 -6.3 °C -9.8 °C 34347.6 hPa Calm     68 % 0 mm 352.0 W/m2 CLR
09:30 -6.2 °C -9.8 °C 34347.6 hPa Calm     66 % 0 mm 374.0 W/m2 CLR
09:35 -5.9 °C -9.9 °C 34347.6 hPa Calm     64 % 0 mm 420.0 W/m2 CLR
09:40 -5.7 °C -9.9 °C 34347.6 hPa Calm     62 % 0 mm 522.0 W/m2 CLR
09:45 -5.6 °C -9.8 °C 34347.6 hPa Calm     62 % 0 mm 471.0 W/m2 CLR
09:50 -5.3 °C -9.9 °C 34347.6 hPa Calm     60 % 0 mm 504.0 W/m2 CLR
09:55 -5.3 °C -10.1 °C 34347.6 hPa Calm     58 % 0 mm 390.0 W/m2 CLR
10:00 -5.2 °C -10.1 °C 34347.6 hPa Calm     57 % 0 mm 422.0 W/m2 CLR
10:06 -4.9 °C -9.8 °C 34347.6 hPa Calm     58 % 0 mm 390.0 W/m2 CLR
10:11 -4.9 °C -9.6 °C 34337.4 hPa Calm     59 % 0 mm 534.0 W/m2 CLR
10:16 -4.7 °C -9.9 °C 34337.4 hPa Calm     56 % 0 mm 693.0 W/m2 CLR
10:21 -4.6 °C -10.2 °C 34337.4 hPa Calm     53 % 0 mm 731.0 W/m2 CLR
10:26 -4.4 °C -10.4 °C 34337.4 hPa Calm     51 % 0 mm 570.0 W/m2 CLR
10:31 -4.3 °C -10.6 °C 34337.4 hPa Calm     49 % 0 mm 589.0 W/m2 CLR
10:36 -4.2 °C -11.3 °C 34337.4 hPa Calm     45 % 0 mm 515.0 W/m2 CLR
10:41 -4 °C -11.1 °C 34313.7 hPa Calm     45 % 0 mm 364.0 W/m2 CLR
10:46 -3.9 °C -11.2 °C 34337.4 hPa NW 15.6 km/h 15.6 km/h 44 % 0 mm 457.0 W/m2 CLR
10:51 -3.9 °C -11.8 °C 34327.3 hPa Calm     41 % 0 mm 436.0 W/m2 CLR
10:56 -3.7 °C -12.3 °C 34337.4 hPa Calm     38 % 0 mm 561.0 W/m2 CLR
11:01 -3.5 °C -14.8 °C 34337.4 hPa SW 29.8 km/h 29.8 km/h 27 % 0 mm 519.0 W/m2 CLR
11:06 -3.4 °C -15.4 °C 34337.4 hPa South 38.8 km/h 38.8 km/h 25 % 0 mm 418.0 W/m2 CLR
11:11 -3.4 °C -15.1 °C 34337.4 hPa South 20.8 km/h 20.8 km/h 26 % 0 mm 443.0 W/m2 CLR
11:16 -3.4 °C -15.1 °C 34337.4 hPa South 32.8 km/h 32.8 km/h 26 % 0 mm 490.0 W/m2 CLR
11:21 -3.4 °C -15.1 °C 34337.4 hPa South 20.9 km/h 20.9 km/h 26 % 0 mm 512.0 W/m2 CLR
11:26 -3.3 °C -15 °C 34327.3 hPa South 11.9 km/h 11.9 km/h 26 % 0 mm 459.0 W/m2 CLR
11:31 -3.2 °C -15.2 °C 34327.3 hPa SSW 28.5 km/h 28.5 km/h 25 % 0 mm 466.0 W/m2 CLR
11:36 -3.2 °C -15.2 °C 34327.3 hPa SSE 23.8 km/h 23.8 km/h 25 % 0 mm 411.0 W/m2 CLR
11:41 -3.3 °C -15.3 °C 34327.3 hPa South 17.9 km/h 17.9 km/h 25 % 0 mm 499.0 W/m2 CLR
11:46 -3.2 °C -15.2 °C 34327.3 hPa South 18.2 km/h 18.2 km/h 25 % 0 mm 615.0 W/m2 CLR
11:51 -2.9 °C -15.3 °C 34327.3 hPa South 32.8 km/h 32.8 km/h 24 % 0 mm 896.0 W/m2 CLR
11:56 -3 °C -15.7 °C 34327.3 hPa ESE 38.8 km/h 38.8 km/h 23 % 0 mm 914.0 W/m2 CLR
12:01 -2.8 °C -15.5 °C 34327.3 hPa South 35.7 km/h 35.7 km/h 23 % 0 mm 745.0 W/m2 CLR
12:06 -3 °C -15.7 °C 34327.3 hPa South 41.7 km/h 41.7 km/h 23 % 0 mm 422.0 W/m2 CLR
12:11 -3.2 °C -15.8 °C 34327.3 hPa South 32.8 km/h 32.8 km/h 23 % 0 mm 464.0 W/m2 CLR
12:16 -3.1 °C -16.1 °C 34327.3 hPa SE 26.9 km/h 26.9 km/h 22 % 0 mm 403.0 W/m2 CLR
12:21 -3.1 °C -16.5 °C 34327.3 hPa South 32.8 km/h 32.8 km/h 21 % 0 mm 352.0 W/m2 CLR
12:26 -3 °C -16.1 °C 34327.3 hPa South 31.1 km/h 31.1 km/h 22 % 0 mm 858.0 W/m2 CLR
12:31 -3 °C -16.4 °C 34327.3 hPa South 26.9 km/h 26.9 km/h 21 % 0 mm 954.0 W/m2 CLR
12:36 -3 °C -16.8 °C 34327.3 hPa SE 29.8 km/h 29.8 km/h 20 % 0 mm 330.0 W/m2 CLR
12:41 -2.8 °C -16.7 °C 34313.7 hPa SSE 17.9 km/h 17.9 km/h 20 % 0 mm 573.0 W/m2 CLR
12:46 -2.7 °C -15.8 °C 34313.7 hPa ESE 32.8 km/h 32.8 km/h 22 % 0 mm 550.0 W/m2 CLR
12:51 -2.9 °C -15.9 °C 34313.7 hPa South 26.9 km/h 26.9 km/h 22 % 0 mm 496.0 W/m2 CLR
12:56 -2.7 °C -15.8 °C 34313.7 hPa SSE 26.9 km/h 26.9 km/h 22 % 0 mm 1106.0 W/m2 CLR
13:01 -2.8 °C -15.9 °C 34313.7 hPa East 15 km/h 15 km/h 22 % 0 mm 977.0 W/m2 CLR
13:06 -2.6 °C -15.7 °C 34303.6 hPa SSE 23.3 km/h 23.3 km/h 22 % 0 mm 998.0 W/m2 CLR
13:11 -2.5 °C -15.6 °C 34303.6 hPa SSE 29.8 km/h 29.8 km/h 22 % 0 mm 990.0 W/m2 CLR
13:16 -2.4 °C -14.9 °C 34303.6 hPa SE 18.2 km/h 18.2 km/h 24 % 0 mm 949.0 W/m2 CLR
13:21 -2.3 °C -15.8 °C 34303.6 hPa South 20.9 km/h 20.9 km/h 21 % 0 mm 942.0 W/m2 CLR
13:26 -2.3 °C -15.4 °C 34303.6 hPa Calm     22 % 0 mm 937.0 W/m2 CLR
13:31 -2 °C -15.2 °C 34293.4 hPa SSE 29.8 km/h 29.8 km/h 22 % 0 mm 939.0 W/m2 CLR
13:36 -2.1 °C -14.6 °C 34303.6 hPa SE 28.5 km/h 28.5 km/h 24 % 0 mm 930.0 W/m2 CLR
13:41 -2.2 °C -15 °C 34303.6 hPa ESE 29.8 km/h 29.8 km/h 23 % 0 mm 935.0 W/m2 CLR
13:46 -2.2 °C -14.7 °C 34303.6 hPa SE 26.9 km/h 26.9 km/h 24 % 0 mm 912.0 W/m2 CLR
13:51 -2.3 °C -14.1 °C 34293.4 hPa SE 32.8 km/h 32.8 km/h 26 % 0 mm 977.0 W/m2 CLR
13:56 -2.3 °C -13.8 °C 34303.6 hPa SE 33.6 km/h 33.6 km/h 27 % 0 mm 967.0 W/m2 CLR
14:01 -2.4 °C -13.7 °C 34293.4 hPa ESE 41.4 km/h 41.4 km/h 28 % 0 mm 1013.0 W/m2 CLR
14:06 -2.4 °C -13.7 °C 34293.4 hPa ESE 32.8 km/h 32.8 km/h 28 % 0 mm 976.0 W/m2 CLR
14:11 -2.4 °C -13.3 °C 34293.4 hPa ESE 44.7 km/h 44.7 km/h 29 % 0 mm 979.0 W/m2 CLR
14:16 -2.3 °C -13.6 °C 34293.4 hPa SE 38.8 km/h 38.8 km/h 28 % 0 mm 995.0 W/m2 CLR
14:21 -2.2 °C -13.4 °C 34293.4 hPa South 29.8 km/h 29.8 km/h 28 % 0 mm 974.0 W/m2 CLR
14:26 -2.1 °C -13.4 °C 34293.4 hPa SSE 29.8 km/h 29.8 km/h 28 % 0 mm 995.0 W/m2 CLR
14:31 -2.2 °C -13.7 °C 34293.4 hPa SSE 44.7 km/h 44.7 km/h 27 % 0 mm 1069.0 W/m2 CLR
14:36 -2.3 °C -12.9 °C 34293.4 hPa SE 38.8 km/h 38.8 km/h 30 % 0 mm 998.0 W/m2 CLR
14:41 -2.3 °C -13.2 °C 34293.4 hPa SE 41.7 km/h 41.7 km/h 29 % 0 mm 974.0 W/m2 CLR
14:46 -2.2 °C -12.6 °C 34279.9 hPa SSE 38.8 km/h 38.8 km/h 31 % 0 mm 960.0 W/m2 CLR
14:49 -2.3 °C -12.4 °C 34293.4 hPa SSE 50.7 km/h 50.7 km/h 32 % 0 mm 953.0 W/m2 CLR
14:54 -2.4 °C -12.5 °C 34279.9 hPa SSE 35.7 km/h 35.7 km/h 32 % 0 mm 944.0 W/m2 CLR
14:59 -2.3 °C -12.2 °C 34279.9 hPa ESE 56.6 km/h 56.6 km/h 33 % 0 mm 967.0 W/m2 CLR
15:04 -2.5 °C -12.3 °C 34279.9 hPa SE 46.7 km/h 46.7 km/h 33 % 0 mm 958.0 W/m2 CLR
15:09 -2.5 °C -12.3 °C 34279.9 hPa ESE 51.8 km/h 51.8 km/h 33 % 0 mm 914.0 W/m2 CLR
15:19 -2.6 °C -12.1 °C 34279.9 hPa SE 47.6 km/h 47.6 km/h 34 % 0 mm 911.0 W/m2 CLR
15:24 -2.6 °C -12.2 °C 34279.9 hPa South 38.8 km/h 38.8 km/h 34 % 0 mm 951.0 W/m2 CLR
15:25 -2.6 °C -12.1 °C 34279.9 hPa ESE 32.8 km/h 32.8 km/h 34 % 0 mm 970.0 W/m2 CLR
15:30 -2.6 °C -12.2 °C 34279.9 hPa SE 56.6 km/h 56.6 km/h 34 % 0 mm 970.0 W/m2 CLR
15:35 -2.6 °C -11.9 °C 34279.9 hPa ESE 29.8 km/h 29.8 km/h 35 % 0 mm 960.0 W/m2 CLR
15:40 -2.5 °C -12.1 °C 34279.9 hPa ESE 41.4 km/h 41.4 km/h 34 % 0 mm 930.0 W/m2 CLR
15:45 -2.6 °C -12.4 °C 34279.9 hPa SE 47.6 km/h 47.6 km/h 33 % 0 mm 912.0 W/m2 CLR
15:50 -2.6 °C -12.4 °C 34279.9 hPa SE 50.7 km/h 50.7 km/h 33 % 0 mm 867.0 W/m2 CLR
15:55 -2.6 °C -12.9 °C 34279.9 hPa SE 47.6 km/h 47.6 km/h 31 % 0 mm 851.0 W/m2 CLR
16:00 -2.6 °C -13.5 °C 34279.9 hPa SSE 29.8 km/h 29.8 km/h 29 % 0 mm 831.0 W/m2 CLR
16:05 -2.7 °C -13.6 °C 34279.9 hPa SE 41.7 km/h 41.7 km/h 29 % 0 mm 819.0 W/m2 CLR
16:10 -2.6 °C -13.8 °C 34279.9 hPa SE 50.7 km/h 50.7 km/h 28 % 0 mm 793.0 W/m2 CLR
16:15 -2.6 °C -13.5 °C 34269.7 hPa SSE 47.6 km/h 47.6 km/h 29 % 0 mm 772.0 W/m2 CLR
16:20 -2.4 °C -13.7 °C 34269.7 hPa SE 44.7 km/h 44.7 km/h 28 % 0 mm 724.0 W/m2 CLR
16:25 -2.6 °C -13.5 °C 34269.7 hPa SE 50.7 km/h 50.7 km/h 29 % 0 mm 763.0 W/m2 CLR
16:30 -2.7 °C -13.3 °C 34269.7 hPa SE 33.6 km/h 33.6 km/h 30 % 0 mm 796.0 W/m2 CLR
16:35 -2.6 °C -14 °C 34269.7 hPa SE 41.7 km/h 41.7 km/h 27 % 0 mm 292.0 W/m2 CLR
16:40 -2.7 °C -14.1 °C 34269.7 hPa SSE 41.7 km/h 41.7 km/h 27 % 0 mm 330.0 W/m2 CLR
16:45 -2.8 °C -14.3 °C 34269.7 hPa ESE 33.6 km/h 33.6 km/h 27 % 0 mm 431.0 W/m2 CLR
16:50 -2.6 °C -14.1 °C 34269.7 hPa ESE 36.2 km/h 36.2 km/h 27 % 0 mm 431.0 W/m2 CLR
16:55 -2.7 °C -14.4 °C 34269.7 hPa SE 29.8 km/h 29.8 km/h 26 % 0 mm 431.0 W/m2 CLR
17:00 -2.7 °C -14.5 °C 34269.7 hPa ESE 35.7 km/h 35.7 km/h 26 % 0 mm 826.0 W/m2 CLR
17:05 -2.6 °C -14.4 °C 34269.7 hPa SE 47.6 km/h 47.6 km/h 26 % 0 mm 761.0 W/m2 CLR
17:10 -2.6 °C -14.4 °C 34269.7 hPa SE 50.7 km/h 50.7 km/h 26 % 0 mm 717.0 W/m2 CLR
17:15 -2.7 °C -14.4 °C 34269.7 hPa SE 29.8 km/h 29.8 km/h 26 % 0 mm 666.0 W/m2 CLR
17:20 -2.6 °C -14.3 °C 34269.7 hPa SSE 36.2 km/h 36.2 km/h 26 % 0 mm 654.0 W/m2 CLR
17:25 -2.7 °C -14.4 °C 34269.7 hPa ESE 44.7 km/h 44.7 km/h 26 % 0 mm 638.0 W/m2 CLR
17:30 -2.7 °C -14.2 °C 34269.7 hPa ESE 32.8 km/h 32.8 km/h 27 % 0 mm 633.0 W/m2 CLR
17:35 -2.7 °C -14.2 °C 34269.7 hPa SE 47.6 km/h 47.6 km/h 27 % 0 mm 606.0 W/m2 CLR
17:40 -2.7 °C -14.2 °C 34269.7 hPa ESE 29.8 km/h 29.8 km/h 27 % 0 mm 592.0 W/m2 CLR
17:45 -2.7 °C -14.1 °C 34269.7 hPa ESE 35.7 km/h 35.7 km/h 27 % 0 mm 578.0 W/m2 CLR
17:50 -2.6 °C -14 °C 34269.7 hPa SE 51.8 km/h 51.8 km/h 27 % 0 mm 563.0 W/m2 CLR
17:55 -2.7 °C -13.9 °C 34269.7 hPa SSE 46.7 km/h 46.7 km/h 28 % 0 mm 545.0 W/m2 CLR
18:00 -2.8 °C -13.9 °C 34269.7 hPa SE 47.6 km/h 47.6 km/h 28 % 0 mm 529.0 W/m2 CLR
18:05 -2.7 °C -13.9 °C 34269.7 hPa SSE 50.7 km/h 50.7 km/h 28 % 0 mm 513.0 W/m2 CLR
18:10 -2.9 °C -14 °C 34269.7 hPa SSE 38.8 km/h 38.8 km/h 28 % 0 mm 497.0 W/m2 CLR
18:15 -2.9 °C -14.3 °C 34269.7 hPa SSE 50.7 km/h 50.7 km/h 27 % 0 mm 483.0 W/m2 CLR
18:20 -3 °C -14.1 °C 34269.7 hPa South 23.8 km/h 23.8 km/h 28 % 0 mm 468.0 W/m2 CLR
18:25 -2.8 °C -14.2 °C 34269.7 hPa SE 17.9 km/h 19.2 km/h 27 % 0 mm 452.0 W/m2 CLR
18:30 -2.9 °C -14.3 °C 34269.7 hPa SE 38.8 km/h 38.8 km/h 27 % 0 mm 438.0 W/m2 CLR
18:35 -2.9 °C -14.4 °C 34269.7 hPa ESE 29.8 km/h 29.8 km/h 27 % 0 mm 422.0 W/m2 CLR
18:40 -3.1 °C -14.8 °C 34269.7 hPa SE 41.7 km/h 41.7 km/h 26 % 0 mm 404.0 W/m2 CLR
18:45 -3.1 °C -14.5 °C 34269.7 hPa SE 31.1 km/h 31.1 km/h 27 % 0 mm 390.0 W/m2 CLR
18:50 -3.1 °C -14.8 °C 34269.7 hPa SE 38.8 km/h 38.8 km/h 26 % 0 mm 374.0 W/m2 CLR
18:55 -3.2 °C -14.9 °C 34269.7 hPa SSE 47.6 km/h 47.6 km/h 26 % 0 mm 362.0 W/m2 CLR
19:00 -3.3 °C -14.6 °C 34269.7 hPa SSE 32.8 km/h 32.8 km/h 27 % 0 mm 345.0 W/m2 CLR
19:05 -3.3 °C -14.7 °C 34269.7 hPa SSE 35.7 km/h 35.7 km/h 27 % 0 mm 330.0 W/m2 CLR
19:10 -3.3 °C -14.4 °C 34269.7 hPa South 29.8 km/h 29.8 km/h 28 % 0 mm 315.0 W/m2 CLR
19:15 -3.3 °C -14.3 °C 34269.7 hPa SSE 32.8 km/h 32.8 km/h 28 % 0 mm 301.0 W/m2 CLR
19:20 -3.3 °C -14.4 °C 34269.7 hPa SE 38.8 km/h 38.8 km/h 28 % 0 mm 281.0 W/m2 CLR
19:25 -3.3 °C -14.3 °C 34269.7 hPa SSE 29.8 km/h 29.8 km/h 28 % 0 mm 267.0 W/m2 CLR
19:30 -3.3 °C -14.1 °C 34269.7 hPa SE 23.8 km/h 23.8 km/h 29 % 0 mm 251.0 W/m2 CLR
19:35 -3.6 °C -13.8 °C 34269.7 hPa SE 41.7 km/h 41.7 km/h 31 % 0 mm 239.0 W/m2 CLR
19:40 -3.7 °C -13.6 °C 34269.7 hPa SE 29.8 km/h 29.8 km/h 32 % 0 mm 223.0 W/m2 CLR
19:46 -3.7 °C -13.4 °C 34269.7 hPa SE 41.7 km/h 41.7 km/h 33 % 0 mm 204.0 W/m2 CLR
19:51 -3.8 °C -13.4 °C 34269.7 hPa ESE 29.8 km/h 29.8 km/h 33 % 0 mm 188.0 W/m2 CLR
19:56 -3.8 °C -13.5 °C 34269.7 hPa SSE 32.8 km/h 32.8 km/h 33 % 0 mm 172.0 W/m2 CLR
20:01 -3.8 °C -13.5 °C 34269.7 hPa SSE 31.1 km/h 31.1 km/h 33 % 0 mm 156.0 W/m2 CLR
20:06 -3.8 °C -13.5 °C 34269.7 hPa South 20.9 km/h 20.9 km/h 33 % 0 mm 139.0 W/m2 CLR
20:11 -3.8 °C -14 °C 34269.7 hPa SE 25.9 km/h 25.9 km/h 31 % 0 mm 125.0 W/m2 CLR
20:16 -3.9 °C -13.3 °C 34269.7 hPa SE 23.8 km/h 23.8 km/h 34 % 0 mm 109.0 W/m2 CLR
20:21 -4 °C -13.2 °C 34279.9 hPa SE 20.9 km/h 20.9 km/h 35 % 0 mm 95.0 W/m2 CLR
20:26 -4.1 °C -13.1 °C 34279.9 hPa SE 29.8 km/h 29.8 km/h 36 % 0 mm 81.0 W/m2 FEW
20:31 -4.3 °C -13 °C 34279.9 hPa SSE 25.9 km/h 25.9 km/h 37 % 0 mm 47.0 W/m2 SCT
20:36 -4.4 °C -13.1 °C 34279.9 hPa SSE 23.8 km/h 23.8 km/h 37 % 0 mm 30.0 W/m2 BKN
20:41 -4.6 °C -12.9 °C 34293.4 hPa SSE 23.8 km/h 23.8 km/h 38 % 0 mm 25.0 W/m2 BKN
20:46 -4.6 °C -13.1 °C 34293.4 hPa SSE 26.9 km/h 26.9 km/h 38 % 0 mm 16.0 W/m2 BKN
20:51 -4.7 °C -12.9 °C 34293.4 hPa SSE 20.9 km/h 20.9 km/h 39 % 0 mm 9.0 W/m2 BKN
20:56 -4.8 °C -12.8 °C 34303.6 hPa SE 23.8 km/h 23.8 km/h 40 % 0 mm 7.0 W/m2 BKN
21:01 -4.9 °C -12.7 °C 34303.6 hPa SSE 23.8 km/h 23.8 km/h 41 % 0 mm 5.0 W/m2 OVC
21:06 -5.1 °C -12.6 °C 34303.6 hPa SE 11.9 km/h 11.9 km/h 42 % 0 mm 5.0 W/m2 OVC
21:11 -5.2 °C -12.5 °C 34303.6 hPa SSE 17.9 km/h 17.9 km/h 43 % 0 mm 0.0 W/m2 OVC
21:16 -5.2 °C -12.4 °C 34303.6 hPa SSE 11.9 km/h 11.9 km/h 44 % 0 mm 0.0 W/m2 OVC
21:21 -5.3 °C -12.4 °C 34303.6 hPa SE 9 km/h 9 km/h 44 % 0 mm 0.0 W/m2 OVC
21:26 -5.4 °C -12.6 °C 34303.6 hPa SSE 15 km/h 15 km/h 44 % 0 mm 0.0 W/m2 OVC
21:31 -5.4 °C -12.6 °C 34313.7 hPa SSE 15 km/h 15 km/h 44 % 0 mm 0.0 W/m2 OVC
21:36 -5.5 °C -12.4 °C 34313.7 hPa Calm     45 % 0 mm 0.0 W/m2 CLR
21:41 -5.5 °C -12.4 °C 34313.7 hPa SE 11.9 km/h 11.9 km/h 45 % 0 mm 0.0 W/m2 CLR
21:46 -5.6 °C -12.6 °C 34313.7 hPa South 9 km/h   45 % 0 mm 0.0 W/m2 CLR
21:51 -5.7 °C -12.4 °C 34327.3 hPa SE 9 km/h 9 km/h 46 % 0 mm 0.0 W/m2 CLR
21:56 -5.7 °C -12.1 °C 34327.3 hPa SE 15 km/h 15 km/h 48 % 0 mm 0.0 W/m2 CLR
22:01 -5.8 °C -12.2 °C 34327.3 hPa ESE 9 km/h 9 km/h 48 % 0 mm 0.0 W/m2 CLR
22:06 -5.9 °C -12.1 °C 34327.3 hPa Calm     49 % 0 mm 0.0 W/m2 CLR
22:11 -6 °C -12.2 °C 34327.3 hPa Calm     49 % 0 mm 0.0 W/m2 CLR
22:16 -6 °C -12.2 °C 34327.3 hPa Calm     49 % 0 mm 0.0 W/m2 CLR
22:21 -6.1 °C -12.1 °C 34327.3 hPa SSE 11.9 km/h 11.9 km/h 50 % 0 mm 0.0 W/m2 CLR
22:26 -6.2 °C -12 °C 34337.4 hPa SSE 15 km/h 15 km/h 51 % 0 mm 0.0 W/m2 CLR
22:31 -6.3 °C -11.9 °C 34337.4 hPa Calm     52 % 0 mm 0.0 W/m2 CLR
22:36 -6.3 °C -12 °C 34337.4 hPa Calm     52 % 0 mm 0.0 W/m2 CLR
22:41 -6.4 °C -11.9 °C 34347.6 hPa Calm     53 % 0 mm 0.0 W/m2 CLR
22:46 -6.5 °C -11.8 °C 34347.6 hPa Calm     54 % 0 mm 0.0 W/m2 CLR
22:51 -6.6 °C -11.9 °C 34347.6 hPa Calm     54 % 0 mm 0.0 W/m2 CLR
22:56 -6.6 °C -11.8 °C 34347.6 hPa SE 10.3 km/h 10.3 km/h 55 % 0 mm 0.0 W/m2 CLR
23:01 -6.6 °C -11.7 °C 34347.6 hPa SSE 9 km/h 9 km/h 56 % 0 mm 0.0 W/m2 CLR
23:06 -6.7 °C -11.6 °C 34347.6 hPa SE 9 km/h 9 km/h 57 % 0 mm 0.0 W/m2 CLR
23:12 -6.7 °C -11.4 °C 34347.6 hPa ESE 11.9 km/h 11.9 km/h 58 % 0 mm 0.0 W/m2 CLR
23:17 -6.7 °C -11.3 °C 34347.6 hPa SE 9 km/h 9 km/h 59 % 0 mm 0.0 W/m2 CLR
23:22 -6.7 °C -11.3 °C 34347.6 hPa SE 10.3 km/h 10.3 km/h 59 % 0 mm 0.0 W/m2 CLR
23:27 -6.8 °C -11.5 °C 34347.6 hPa ESE 9 km/h 9 km/h 58 % 0 mm 0.0 W/m2 CLR
23:32 -6.8 °C -11.4 °C 34347.6 hPa Calm     59 % 0 mm 0.0 W/m2 CLR
23:37 -7 °C -11.4 °C 34347.6 hPa Calm     60 % 0 mm 0.0 W/m2 CLR
23:42 -7.1 °C -11.3 °C 34347.6 hPa Calm     61 % 0 mm 0.0 W/m2 CLR
23:47 -7.1 °C -11.5 °C 34347.6 hPa Calm     60 % 0 mm 0.0 W/m2 CLR
23:52 -7.2 °C -11.6 °C 34347.6 hPa Calm     60 % 0 mm 0.0 W/m2 CLR
23:57 -7.3 °C -11.6 °C 34347.6 hPa Calm     61 % 0 mm 0.0 W/m2 CLR
Lo Temps de Massalio
Compliments of Weather Underground - 1.25 mb